Wind_Speed
26 28 30 38 27 17 18 19 20 13 16 6 18 22 14 17 23 25 29 24 14 12 8 11 18 21 29 34 19 23 23 19 22 18 12 21 19 16 15 14 16 18 20 21
30 31 31 33 29 23 26 33 33 28 17 3 16 7 11 11 18 20 25 22 15 8 8 5 11 18 26 29 20 14 22 19 21 17 14 22 23 18 11 13 14 18 19 24
41 38 43 36 39 34 28 23 20 19 14 10 9 17 11 9 7 14 20 19 20 9 5 4 8 15 20 24 15 13 15 14 15 18 18 22 21 21 22 20 17 21 25 24
45 45 40 35 33 30 22 19 27 12 21 17 18 13 9 2 5 6 13 20 18 13 7 3 7 18 22 19 18 15 20 17 18 19 22 25 23 21 27 26 26 18 20 25
42 38 37 35 31 28 15 16 15 22 16 8 13 10 7 2 2 4 9 13 19 14 12 7 6 19 21 28 23 20 19 25 28 25 26 26 25 21 23 25 27 29 21 20
35 37 43 40 35 24 15 21 29 22 20 15 7 6 3 6 3 4 8 6 9 12 10 12 6 12 22 26 33 33 26 30 28 29 31 33 32 27 28 32 31 28 25 22
39 44 40 40 29 20 17 27 27 21 16 5 5 11 20 9 12 2 5 7 5 6 9 9 12 5 7 23 33 35 36 38 34 36 35 40 40 40 35 35 29 27 23 27
41 50 49 43 28 22 26 33 25 25 7 14 11 15 6 18 20 18 6 27 23 9 20 12 9 11 4 8 17 24 25 26 30 33 37 40 40 38 35 30 29 30 30 31
43 47 48 40 22 28 25 40 39 32 30 28 35 29 16 17 14 19 21 21 15 21 11 14 20 19 14 10 5 7 10 15 25 32 33 34 36 36 37 35 34 34 35 39
36 45 48 43 33 29 34 33 43 43 49 32 17 35 28 29 30 14 21 24 26 19 15 17 16 14 12 9 12 10 11 10 9 13 20 24 29 35 40 40 38 39 40 39
31 37 44 48 40 38 43 42 46 50 53 42 25 23 26 25 28 18 14 27 30 17 21 21 22 17 19 13 13 15 12 11 11 11 12 15 16 18 21 26 29 30 33 32
26 33 34 41 45 48 48 53 42 55 60 48 32 14 31 30 28 30 9 18 33 30 22 23 19 21 21 20 18 19 18 15 15 13 15 16 15 14 14 17 21 24 25 25
29 30 31 35 40 39 38 52 45 46 58 49 41 45 39 27 31 37 37 27 31 35 36 28 29 32 29 27 27 25 22 21 16 16 15 15 15 15 14 15 18 20 22 20
37 32 34 38 39 40 28 37 31 58 55 41 34 36 33 37 23 16 15 21 22 25 37 40 37 39 35 34 32 29 28 24 23 18 17 15 17 18 18 18 18 18 18 17
37 39 41 38 37 35 31 25 33 60 53 45 35 39 38 26 20 18 15 15 16 20 20 30 40 40 39 37 32 31 30 29 29 27 24 23 19 21 22 22 22 20 17 16
42 42 38 39 29 21 18 23 28 31 35 36 36 38 41 36 22 22 16 12 11 16 20 26 30 33 38 35 31 28 30 26 27 30 30 29 26 25 24 25 24 21 22 20
46 43 40 43 37 27 25 22 18 19 23 36 43 40 35 26 22 20 17 16 20 17 20 22 28 32 34 37 33 32 32 33 30 28 28 28 27 26 26 26 25 27 26 26
32 33 37 32 34 30 24 11 11 14 35 39 33 28 29 21 24 22 23 27 23 24 33 29 30 34 35 37 39 36 35 34 31 30 31 30 30 28 27 32 33 32 33 36
30 28 29 32 25 27 20 14 8 9 28 38 39 31 25 18 15 17 23 24 28 39 35 31 31 35 35 36 40 44 42 40 40 38 38 39 36 35 36 36 40 42 43 43
35 41 33 31 24 19 19 15 16 14 23 35 36 35 27 18 15 17 28 37 35 39 35 33 30 33 33 33 35 37 45 48 47 49 47 47 46 47 47 51 47 52 54 53
27 37 39 29 32 30 29 33 28 30 31 31 25 21 15 13 11 15 30 33 32 45 43 35 33 32 26 28 32 36 40 44 48 48 46 47 49 52 52 54 54 52 53 54
32 32 39 36 33 31 36 33 34 33 31 26 17 12 21 14 12 17 26 33 38 41 33 26 24 21 15 16 19 22 23 26 29 30 32 34 35 37 39 41 42 43 45 46
26 29 31 33 30 31 29 33 33 29 35 23 14 24 18 11 13 25 35 47 46 32 24 16 14 11 13 15 16 17 18 19 20 21 22 23 24 25 27 29 31 33 35 37
21 24 26 31 32 35 34 29 30 37 34 28 23 6 6 16 31 33 29 28 12 12 11 11 11 13 12 13 13 15 14 14 13 12 11 16 16 17 17 18 19 20 22 23
8 15 19 22 24 21 30 34 36 35 35 33 26 5 1 26 13 10 7 6 6 7 9 13 12 12 13 13 13 12 10 11 12 13 14 16 16 15 14 14 15 16 18 20
13 17 21 19 22 25 24 28 35 31 38 38 35 27 39 20 24 9 7 7 9 13 11 11 11 11 12 14 13 11 10 10 11 14 16 14 13 12 11 14 17 18 18 18
Wind_Direction
185 182 223 207 216 208 216 226 230 236 300 314 324 328 340 348 349 1 358 14 11 51 86 138 158 170 173 174 169 194 192 185 201 206 225 204 184 203 213 231 250 273 295 314
189 189 183 200 209 201 221 218 240 262 279 36 319 343 4 332 355 347 2 20 19 45 79 153 160 172 179 170 164 190 201 203 217 227 239 206 222 239 253 262 267 285 290 299
201 195 181 187 204 201 228 226 226 255 219 155 84 318 317 335 351 355 9 20 23 23 84 129 166 182 186 188 191 201 195 220 233 231 228 225 240 248 262 266 272 275 275 277
208 204 213 208 214 223 217 238 242 206 176 156 175 237 326 247 336 28 24 31 26 5 10 108 168 184 187 184 182 202 210 215 220 227 233 254 261 257 260 263 266 284 280 272
204 212 210 211 218 208 198 217 218 165 161 162 206 243 49 175 250 40 38 28 33 32 4 350 214 198 206 205 214 199 205 224 239 245 249 255 251 258 262 272 261 248 280 300
203 206 216 218 226 214 195 186 181 185 173 166 275 279 113 132 171 59 40 30 53 32 38 33 344 241 220 215 220 233 242 218 232 245 257 254 257 259 268 269 268 262 262 274
200 200 210 214 219 215 196 185 188 179 181 227 214 212 237 221 208 279 355 318 319 40 18 31 39 69 259 238 237 245 251 249 250 253 257 257 266 267 273 269 256 258 261 255
202 204 212 212 203 197 193 182 194 192 185 198 214 169 192 217 233 253 263 246 259 308 302 308 333 312 325 279 262 254 254 253 257 258 262 266 271 270 264 249 243 250 254 259
202 204 218 215 201 202 205 180 195 190 180 155 211 215 229 249 267 266 240 221 195 238 242 304 285 308 279 309 300 299 287 268 260 258 260 261 262 263 259 255 245 249 256 263
203 204 213 220 212 222 209 194 201 203 189 192 203 217 251 269 278 266 217 212 209 217 245 274 274 275 284 274 285 274 322 302 310 283 271 269 268 263 259 256 255 261 263 263
202 206 206 217 218 199 198 186 206 206 203 204 187 233 250 258 259 260 221 218 221 207 208 235 246 246 267 260 268 275 278 304 316 312 312 299 288 283 274 264 259 254 256 256
199 204 199 199 202 201 197 190 208 209 211 212 207 271 234 244 244 240 242 227 225 224 223 216 229 247 255 244 253 264 266 264 280 288 297 307 288 283 267 258 254 247 243 249
183 190 186 201 201 202 200 204 207 218 214 213 213 213 227 257 258 250 280 266 232 235 237 238 239 243 248 240 245 259 267 272 279 289 289 291 294 287 270 256 252 250 248 244
185 189 196 210 207 195 205 209 228 230 226 221 214 225 239 260 268 262 283 269 262 236 232 241 246 239 239 243 247 252 265 265 268 270 274 275 276 284 287 281 271 268 269 267
188 192 197 210 213 205 215 223 236 227 228 237 236 230 232 207 216 259 290 289 291 265 254 252 248 247 242 240 250 255 260 259 259 258 257 263 270 272 274 277 276 265 260 258
188 198 202 204 209 212 222 225 229 225 219 213 207 199 202 212 225 234 261 266 319 295 275 266 262 253 248 251 249 255 253 255 253 257 259 254 258 261 263 264 279 274 274 263
199 207 206 209 220 228 237 246 246 221 198 192 193 198 205 210 202 212 210 253 288 310 314 290 276 269 252 246 250 251 253 254 255 255 256 260 260 260 263 259 264 270 269 263
204 205 207 213 218 228 229 239 260 210 188 191 188 195 208 216 218 212 244 253 258 298 301 304 303 276 258 253 252 250 253 256 260 263 260 263 259 260 255 264 265 264 262 260
193 197 185 194 217 236 242 253 247 233 199 210 216 214 214 239 234 260 247 273 268 294 298 297 300 288 264 263 257 257 259 261 260 261 268 263 262 261 258 270 266 267 266 264
184 180 187 173 189 173 120 256 234 289 223 207 218 228 229 234 231 268 260 279 289 286 289 295 291 277 274 273 273 266 261 262 263 271 272 271 267 270 269 275 271 273 272 269
204 206 208 216 207 200 205 212 217 213 194 193 192 200 199 208 234 251 271 270 276 288 295 287 283 275 272 271 268 270 270 270 272 273 270 271 272 274 276 278 277 274 270 267
233 232 230 235 236 230 228 226 232 207 187 178 164 187 222 258 252 236 277 298 292 292 283 279 276 274 269 268 270 269 266 265 267 270 272 275 277 277 277 277 278 278 276 275
230 231 229 229 229 238 227 223 212 183 168 138 120 172 185 188 276 292 285 286 280 280 274 276 271 277 287 279 275 274 276 279 283 287 288 287 285 286 287 286 284 282 281 280
202 214 215 216 215 217 213 204 206 194 164 139 113 101 313 257 257 279 275 272 253 250 278 287 295 293 284 281 282 283 288 293 299 302 310 316 314 314 309 306 303 303 299 295
195 206 199 199 196 205 209 202 203 197 183 177 168 118 85 288 273 252 250 228 250 275 282 292 294 291 283 280 280 282 286 297 308 316 322 324 322 323 326 323 322 321 324 323
200 200 199 204 196 200 192 189 206 196 204 198 178 164 173 97 259 258 258 281 276 280 296 300 288 277 270 267 269 276 285 301 314 323 329 334 339 337 343 342 336 335 337 339
Height
10973 10973 10975 10983 10986 10986 10992 10997 10996 10994 11001 10998 10998 10995 10993 10995 10995 10992 10985 10979 10977 10975 10974 10975 10978 10983 10989 10996 11003 11007 11012 11015 11020 11024 11028 11029 11027 11029 11031 11035 11038 11037 11037 11036
10966 10970 10971 10975 10979 10981 10980 10986 10991 11000 11001 10999 10996 10995 10993 10993 10995 10993 10988 10982 10980 10979 10980 10981 10983 10986 10991 10997 11000 11006 11013 11017 11020 11024 11027 11028 11027 11030 11033 11032 11034 11035 11035 11035
10957 10960 10962 10967 10965 10972 10977 10979 10988 10997 10997 10998 10998 10992 10994 10992 10994 10993 10989 10983 10982 10984 10984 10985 10986 10989 10993 10998 11003 11008 11014 11017 11020 11023 11025 11026 11027 11032 11030 11033 11031 11030 11030 11032
10949 10953 10958 10961 10962 10966 10975 10981 10983 10992 10993 10994 10998 10994 10993 10994 10996 10995 10992 10989 10986 10988 10989 10988 10989 10991 10996 11000 11005 11009 11013 11017 11019 11022 11022 11020 11025 11030 11029 11028 11028 11030 11027 11028
10948 10951 10953 10956 10959 10961 10969 10974 10980 10985 10985 10988 10992 10996 10996 10996 10999 10996 10993 10993 10992 10991 10990 10991 10993 10995 10997 11001 11004 11008 11013 11016 11018 11020 11019 11015 11019 11026 11025 11023 11023 11025 11027 11030
10946 10943 10945 10951 10954 10966 10967 10968 10972 10978 10981 10982 10988 10993 10995 10995 10997 10995 10993 10993 10992 10993 10997 10997 10997 10998 11000 11001 11003 11004 11008 11012 11016 11017 11016 11012 11013 11017 11019 11016 11019 11023 11024 11023
10933 10935 10936 10942 10948 10961 10965 10966 10971 10976 10981 10986 10987 10986 10986 10989 10992 10993 10994 10993 10991 10991 10998 10999 10999 11001 11001 11002 11003 11005 11006 11007 11011 11013 11012 11010 11008 11009 11014 11011 11015 11017 11018 11015
10924 10927 10928 10936 10944 10955 10957 10962 10969 10974 10979 10983 10983 10980 10981 10983 10986 10991 10996 11006 10991 10989 10997 10999 10999 11001 11000 11001 11000 11001 11002 11003 11004 11005 11006 11006 11004 11003 11005 11008 11011 11011 11010 11004
10918 10923 10927 10935 10946 10953 10956 10958 10961 10968 10972 10967 10964 10970 10972 10976 10979 10981 10988 10990 10989 10993 10993 10999 11000 11002 10999 10997 10999 10999 10999 10998 11000 11002 11002 11002 11001 10999 10999 11003 11007 11007 11007 11002
10914 10919 10923 10928 10941 10949 10953 10953 10954 10957 10957 10960 10963 10969 10969 10972 10976 10978 10982 10986 10988 10990 10993 11000 10996 10996 10997 10997 10997 10999 10998 10998 10998 10997 10996 10996 10994 10992 10992 10995 11000 11003 11002 11003
10905 10911 10918 10924 10933 10936 10939 10942 10946 10950 10953 10953 10965 10968 10973 10972 10974 10977 10979 10982 10986 10988 10991 10992 10995 10994 10994 10995 10996 10995 10996 10995 10995 10995 10994 10991 10990 10986 10987 10988 10991 10994 10991 10992
10900 10900 10908 10913 10917 10921 10924 10930 10937 10941 10945 10957 10968 10972 10962 10967 10969 10975 10977 10983 10984 10986 10989 10990 10990 10991 10991 10990 10993 10993 10992 10994 10993 10993 10991 10990 10988 10985 10983 10983 10984 10985 10986 10985
10898 10905 10908 10913 10917 10924 10932 10936 10933 10932 10938 10955 10962 10949 10950 10956 10964 10967 10973 10978 10981 10982 10983 10982 10982 10983 10984 10988 10989 10990 10989 10988 10989 10989 10988 10988 10987 10986 10984 10982 10982 10983 10985 10986
10892 10897 10902 10908 10912 10920 10924 10927 10930 10926 10939 10953 10961 10958 10959 10960 10965 10965 10962 10963 10969 10975 10979 10979 10978 10979 10979 10980 10984 10985 10985 10986 10985 10986 10985 10985 10985 10984 10983 10981 10980 10981 10982 10984
10891 10894 10896 10902 10908 10916 10923 10926 10928 10920 10936 10945 10950 10954 10955 10959 10955 10954 10956 10957 10958 10960 10965 10970 10972 10972 10974 10974 10976 10978 10981 10981 10981 10982 10982 10982 10982 10982 10981 10980 10978 10977 10978 10980
10887 10889 10895 10901 10907 10913 10916 10917 10918 10923 10932 10935 10939 10942 10943 10943 10948 10948 10952 10953 10954 10955 10957 10959 10962 10964 10966 10967 10968 10971 10972 10975 10974 10976 10976 10977 10978 10978 10977 10977 10975 10976 10977 10978
10881 10888 10895 10898 10904 10908 10910 10914 10921 10923 10924 10929 10929 10933 10935 10936 10940 10945 10944 10949 10954 10954 10955 10953 10956 10957 10957 10960 10961 10962 10965 10967 10967 10969 10970 10970 10971 10971 10972 10971 10971 10970 10971 10971
10880 10888 10893 10896 10901 10903 10909 10915 10917 10922 10924 10924 10927 10930 10931 10934 10936 10939 10944 10948 10952 10951 10952 10950 10951 10951 10949 10950 10953 10955 10957 10959 10960 10962 10964 10964 10965 10965 10965 10961 10961 10961 10960 10961
10874 10881 10889 10892 10900 10900 10906 10906 10911 10916 10918 10920 10920 10923 10928 10931 10934 10938 10944 10948 10946 10947 10947 10942 10943 10943 10943 10942 10944 10946 10948 10950 10952 10953 10955 10955 10955 10956 10956 10954 10954 10952 10951 10949
10869 10875 10883 10889 10890 10896 10909 10909 10910 10911 10914 10915 10917 10921 10929 10933 10933 10930 10932 10938 10941 10943 10941 10937 10939 10935 10934 10935 10935 10938 10940 10941 10943 10943 10942 10942 10942 10942 10941 10941 10939 10938 10935 10934
10871 10872 10877 10879 10885 10892 10894 10900 10900 10902 10908 10912 10918 10924 10930 10924 10920 10925 10923 10932 10935 10935 10933 10928 10930 10928 10930 10927 10929 10930 10932 10932 10932 10930 10930 10929 10929 10928 10927 10924 10922 10921 10919 10918
10868 10871 10873 10878 10880 10885 10889 10892 10892 10898 10907 10916 10924 10931 10933 10928 10926 10930 10933 10929 10932 10928 10927 10926 10923 10922 10922 10922 10922 10924 10925 10923 10923 10921 10920 10919 10917 10916 10913 10910 10908 10905 10903 10901
10861 10865 10869 10874 10877 10877 10880 10886 10890 10899 10909 10925 10929 10931 10930 10927 10926 10928 10929 10928 10929 10925 10921 10919 10918 10919 10917 10918 10919 10921 10920 10918 10916 10915 10913 10911 10909 10906 10903 10900 10897 10894 10891 10889
10856 10859 10864 10867 10870 10869 10872 10880 10889 10901 10913 10915 10922 10923 10926 10926 10922 10918 10922 10921 10922 10921 10917 10916 10915 10914 10914 10916 10916 10917 10915 10913 10912 10910 10909 10907 10904 10901 10898 10894 10890 10887 10884 10881
10854 10859 10861 10862 10867 10872 10876 10879 10888 10898 10900 10904 10914 10932 10909 10926 10922 10917 10914 10917 10918 10918 10918 10915 10913 10912 10913 10914 10914 10913 10911 10910 10908 10906 10905 10902 10899 10896 10893 10890 10887 10884 10880 10875
10857 10860 10862 10863 10864 10866 10872 10879 10883 10894 10894 10899 10910 10901 10924 10915 10913 10910 10910 10910 10916 10917 10916 10913 10911 10910 10911 10912 10912 10910 10909 10908 10905 10904 10901 10899 10896 10893 10891 10887 10883 10880 10877 10873